Wind_Speed
61 62 63 63 64 65 66 66 67 67 68 69 69 70 71 71 72 73 74 74 75 76 76 77 77 77 78 78 78 78 78 78 78 78 78 78 78 78 78 78 77 77 77 76 76 76 75 75 75 75 75 75 75 74 74 74 74 73 73 73 73 74 74 75 76 76 76 76 76 75 75 76 76 76 76 77 77 76 75 74 73 72 70 69 68
62 63 64 64 65 65 65 66 66 67 68 68 69 69 70 70 71 71 72 73 73 74 74 75 75 75 76 76 76 77 77 77 77 78 77 77 77 77 77 77 77 77 77 76 76 76 75 75 75 75 75 75 75 74 75 74 74 74 74 74 74 75 75 76 77 77 77 77 77 77 76 76 77 77 77 77 77 77 76 75 74 73 72 71 70
63 63 64 64 64 65 65 65 66 66 67 68 68 69 70 70 71 71 71 72 72 73 73 74 74 75 75 75 76 76 77 77 77 77 77 77 77 77 77 77 77 78 77 77 77 77 76 76 75 75 75 75 74 74 75 75 75 75 75 75 75 76 76 77 78 78 78 79 79 79 78 78 78 78 78 78 78 78 77 76 75 74 73 72 72
61 62 63 63 64 64 65 65 66 66 67 67 68 68 69 70 70 71 71 72 72 73 73 73 74 74 74 75 75 75 75 75 76 76 76 76 76 76 76 77 77 77 77 78 78 77 77 77 76 76 75 75 75 75 75 76 76 76 76 77 77 77 77 78 78 79 80 80 80 80 80 80 79 79 79 79 79 79 79 78 77 76 75 74 74
58 59 60 61 62 63 64 64 65 65 66 66 66 67 67 67 68 68 69 69 70 70 70 71 71 72 72 72 72 73 73 74 74 74 74 75 75 75 75 76 76 76 76 76 77 76 76 77 77 76 76 76 76 76 76 76 77 77 77 78 78 79 79 79 79 80 80 81 81 81 81 82 81 81 81 80 80 81 81 80 79 79 78 77 76
55 55 56 57 58 59 60 61 62 63 64 64 65 65 65 65 66 66 66 67 67 67 67 68 68 68 68 69 69 69 70 70 71 71 72 72 73 73 74 75 75 75 75 75 75 75 75 75 76 76 76 77 77 77 77 77 78 78 78 78 79 79 79 79 79 80 80 81 82 82 83 83 83 83 83 81 80 80 81 82 82 81 81 80 79
51 51 52 52 53 54 55 56 57 58 60 61 63 64 64 64 64 64 64 65 65 66 67 67 67 67 67 67 67 67 68 68 69 69 70 70 70 71 72 73 74 74 74 74 75 75 75 75 76 76 76 77 77 78 78 78 79 79 79 79 79 80 80 80 80 81 81 81 82 82 83 84 84 84 84 84 83 81 81 82 83 83 83 83 82
46 47 47 47 48 48 49 50 50 51 52 54 55 58 60 62 63 63 63 63 63 64 64 65 66 67 68 68 69 69 69 69 69 70 71 71 71 72 73 73 74 74 75 75 75 75 75 76 76 77 77 77 78 78 78 79 79 79 80 80 80 80 81 81 81 81 81 81 82 82 82 83 84 85 85 86 86 85 82 81 82 84 85 85 85
41 42 42 43 43 44 44 45 45 46 46 47 48 49 51 53 55 57 59 60 61 62 62 63 64 65 66 68 69 70 71 72 72 73 73 73 73 74 75 76 76 77 77 77 77 77 77 77 78 78 79 79 79 80 80 80 80 81 81 81 81 81 81 81 81 82 82 82 82 82 82 83 83 84 86 87 88 88 86 84 83 84 85 85 86
40 40 40 40 41 42 42 43 44 44 45 46 47 48 48 49 50 51 53 54 56 58 60 62 63 65 66 68 69 70 72 73 74 75 76 77 77 78 79 79 79 80 80 80 80 79 79 80 80 81 81 81 82 82 82 83 83 83 83 83 83 83 83 83 83 83 83 83 83 83 83 83 84 84 85 86 88 89 89 88 86 84 84 84 85
42 42 42 42 42 43 43 44 45 46 46 47 48 49 50 51 52 52 53 54 54 56 57 59 61 63 66 68 70 72 73 75 76 77 78 79 80 81 82 82 83 84 84 84 84 84 84 84 84 84 84 84 84 84 85 85 85 85 85 85 85 85 85 86 86 86 85 85 85 85 84 84 85 85 85 86 88 89 90 90 89 87 86 85 85
45 45 45 45 45 46 46 47 48 49 49 50 51 52 53 54 55 55 56 57 58 58 59 60 61 63 64 66 67 70 72 75 77 79 80 81 82 84 85 85 86 86 87 88 88 88 88 88 88 88 88 88 88 88 88 88 88 87 87 87 88 88 88 88 88 88 88 87 87 87 86 86 86 86 87 87 88 89 91 91 90 90 89 87 86
47 47 48 48 48 49 50 50 51 52 53 53 54 55 56 56 57 58 59 60 61 61 62 63 64 64 65 66 67 68 70 72 74 76 78 80 82 85 87 88 89 89 90 91 91 91 92 92 92 92 92 92 92 92 92 91 91 91 91 91 91 91 91 90 90 90 90 90 90 89 89 88 88 88 89 89 90 90 92 92 92 92 92 90 88
49 49 50 50 51 51 52 53 53 54 55 56 56 57 58 58 59 60 61 62 63 63 64 64 65 66 67 68 68 69 70 70 71 72 73 75 77 80 83 85 87 90 91 93 93 94 94 94 95 95 95 95 95 95 94 94 94 94 93 93 93 93 93 92 92 92 92 92 92 91 91 91 90 90 91 91 91 92 93 93 93 93 92 91 89
51 51 52 52 53 53 54 54 55 56 57 57 58 58 59 60 60 61 62 63 64 65 66 66 67 68 68 69 70 70 71 71 72 72 72 72 73 74 76 78 80 83 85 88 90 92 94 95 95 96 96 96 95 95 95 95 95 95 95 95 95 94 94 94 94 93 93 93 93 93 92 92 92 92 92 92 93 93 94 94 94 93 91 90 89
53 53 53 54 54 55 55 56 56 57 58 59 60 60 60 61 61 62 63 64 65 66 67 67 68 68 69 70 71 71 72 72 73 73 72 72 72 72 73 74 75 76 77 79 81 83 85 88 90 91 93 93 94 94 95 95 95 95 95 95 95 96 95 95 95 95 95 95 95 94 94 94 94 94 93 93 94 94 94 94 93 93 92 90 89
54 54 55 55 55 56 56 57 58 58 60 61 62 62 62 62 63 64 64 65 66 67 68 68 69 69 70 70 71 72 72 72 73 73 73 73 72 72 72 73 73 73 73 74 75 76 77 78 80 81 84 85 87 89 90 91 92 92 93 93 94 94 95 95 95 95 96 96 96 95 95 95 95 95 94 94 94 94 94 94 93 93 93 92 90
56 56 56 56 56 56 57 59 59 59 61 62 63 64 65 65 65 65 66 66 67 68 69 70 70 70 71 71 71 71 72 72 72 73 73 72 72 71 71 72 73 73 72 72 72 72 72 73 73 74 75 76 78 79 81 82 84 85 87 88 89 90 91 92 93 93 94 95 95 95 95 95 95 95 94 94 94 94 94 94 94 94 94 94 93
58 58 58 58 58 58 58 60 60 60 61 62 64 65 66 67 66 67 67 68 68 69 69 70 71 71 71 71 71 71 71 71 72 72 72 72 71 71 71 71 71 72 71 71 70 70 70 70 70 70 70 71 72 72 73 74 75 76 78 80 81 83 85 86 87 89 90 91 92 92 93 93 94 94 94 94 94 94 94 94 95 95 95 95 95
59 59 59 59 59 60 60 61 61 61 61 62 63 65 66 67 67 67 68 69 69 69 70 70 71 71 71 71 71 71 70 71 71 71 71 71 70 70 70 70 70 70 70 69 69 68 68 68 68 68 68 68 69 69 70 71 71 71 72 73 74 75 76 78 80 81 83 85 86 87 88 89 90 91 92 93 93 93 94 94 95 95 96 96 97
61 60 59 59 59 60 61 62 62 62 62 62 63 64 66 68 68 68 69 70 70 71 70 71 71 71 71 71 71 70 70 70 70 70 70 70 69 69 68 68 69 69 69 68 67 67 67 66 66 66 66 67 67 67 68 68 69 70 70 71 71 71 71 72 73 74 76 77 78 80 81 83 85 86 87 89 90 91 92 92 94 94 95 96 97
63 62 61 60 60 62 63 64 65 64 64 64 65 65 66 68 70 69 70 71 71 71 71 71 72 72 71 71 71 70 70 69 69 69 69 69 68 67 67 67 67 67 67 67 66 66 66 66 66 66 66 66 66 67 67 67 68 69 69 70 70 71 71 71 71 72 72 73 74 75 76 77 79 80 81 83 84 85 87 88 90 91 92 94 96
64 64 64 63 63 64 66 67 68 68 67 67 67 66 66 69 71 70 70 71 72 72 72 71 72 71 71 71 70 69 69 68 68 67 68 67 67 66 65 65 65 65 65 65 65 65 65 65 66 66 66 66 66 66 67 67 68 69 69 69 70 70 71 71 71 72 72 73 73 73 73 74 76 76 76 78 79 80 82 83 85 87 88 90 92
68 67 67 66 66 66 67 69 70 70 70 70 70 69 68 69 72 72 71 72 73 73 72 72 72 72 71 71 70 69 68 67 66 66 66 66 65 65 64 64 64 64 64 64 63 63 63 64 64 65 65 65 65 65 66 67 68 69 69 69 70 70 71 71 71 72 72 73 73 73 74 75 76 76 76 77 78 79 80 81 82 83 85 86 88
72 71 70 69 68 68 69 70 72 73 73 73 74 73 71 71 73 73 73 73 74 74 73 73 72 72 71 71 70 68 67 66 66 65 65 65 64 64 63 63 63 63 63 63 63 62 62 62 63 63 64 64 64 65 66 67 68 68 69 69 69 69 70 70 71 71 72 72 73 73 74 75 76 76 76 77 79 80 81 82 82 83 84 85 86
73 73 73 72 71 71 71 72 74 75 76 76 76 76 74 74 75 75 74 74 75 75 74 74 73 72 71 70 69 68 67 66 65 64 64 63 63 63 62 62 62 62 61 62 62 62 62 62 62 62 63 64 64 65 66 67 68 69 69 69 69 69 70 70 70 71 71 71 72 72 73 74 75 75 76 77 79 80 81 82 83 84 85 86 86
73 74 74 73 72 71 71 72 74 76 77 77 78 78 77 76 76 76 76 76 75 75 75 74 73 72 71 70 69 68 66 65 64 64 63 62 62 62 62 62 61 61 61 61 61 61 61 61 61 62 63 64 64 65 67 68 69 69 69 70 70 70 70 70 70 71 72 72 73 73 74 75 76 76 77 78 79 80 81 82 83 84 86 87 88
75 75 75 74 73 72 73 74 75 76 78 78 80 80 79 77 78 77 77 76 76 75 75 74 73 72 71 70 69 67 66 65 64 63 62 62 62 61 61 61 61 61 60 60 60 61 61 62 62 62 63 64 65 66 67 68 68 69 69 69 70 70 70 70 70 71 72 73 74 74 75 76 77 78 79 80 81 82 83 83 84 85 86 88 89
76 76 75 75 74 73 74 75 76 77 79 80 81 82 81 79 79 79 78 77 76 75 74 73 72 71 70 69 68 67 66 65 63 62 61 61 61 61 61 61 61 61 61 61 61 61 62 62 62 63 64 64 65 66 67 68 68 68 69 69 69 69 70 70 71 71 72 73 74 75 76 77 78 79 80 81 82 84 85 85 85 87 88 89 90
77 77 76 75 74 74 74 75 76 78 79 80 82 83 82 80 80 80 79 78 77 76 74 73 72 71 70 68 67 66 65 64 63 61 61 61 61 61 61 61 61 61 61 61 61 62 62 62 62 63 64 65 66 67 68 68 68 69 69 69 69 69 70 70 71 72 72 74 75 76 77 78 79 80 80 82 83 84 85 86 87 88 89 90 91
79 79 77 76 75 75 75 76 78 79 80 81 82 83 82 80 80 80 79 78 77 76 74 73 72 70 69 68 67 66 64 63 62 61 61 61 60 60 60 60 60 60 61 61 62 62 62 62 63 64 64 65 66 67 68 68 69 70 71 71 71 70 71 71 71 72 72 73 73 74 76 77 78 79 81 82 83 84 86 87 87 88 89 91 93
81 80 79 78 77 77 77 78 79 81 82 82 83 83 82 80 80 79 79 78 77 75 74 73 72 70 69 67 66 65 64 63 61 61 61 60 60 60 60 59 59 59 60 61 61 62 62 62 63 64 64 65 66 67 68 69 70 71 73 73 72 71 71 71 71 71 71 72 72 73 74 75 76 77 78 80 81 82 84 85 86 86 87 89 91
82 82 80 79 79 79 80 81 82 83 83 82 83 83 82 80 80 79 78 77 76 74 73 72 71 69 68 67 65 64 63 62 61 61 60 60 60 59 59 59 58 59 59 60 61 62 62 63 63 64 64 65 66 68 69 70 71 72 73 73 72 71 70 70 70 70 70 71 71 72 72 72 72 72 73 74 75 76 77 78 79 81 82 83 85
84 82 81 80 80 81 83 83 84 85 85 84 83 83 81 80 79 78 77 76 75 74 73 71 70 69 67 66 64 63 62 61 61 61 60 60 59 59 58 58 58 59 59 60 61 61 62 63 64 64 65 65 66 68 69 70 71 71 72 72 71 70 69 69 68 68 68 68 67 68 68 67 67 68 68 69 70 71 71 72 73 75 76 77 79
85 84 83 82 83 83 84 85 86 87 87 86 85 84 82 79 78 77 76 75 74 73 72 71 69 68 66 65 64 63 62 61 60 60 60 59 59 59 59 59 59 59 59 60 61 61 62 63 64 64 64 65 66 68 69 69 70 70 71 71 70 68 67 66 65 64 64 63 63 63 63 63 63 64 64 65 65 66 66 67 69 70 71 73 74
88 87 86 86 87 87 87 87 88 88 88 87 86 84 82 79 77 76 75 74 73 72 71 70 68 67 65 64 63 62 61 60 60 60 60 60 59 59 59 59 59 59 60 60 61 61 62 62 63 64 64 64 65 67 68 68 69 69 69 69 67 66 64 63 61 61 60 60 60 60 60 60 60 59 58 58 58 60 62 63 64 65 67 69 70
89 89 89 90 91 91 91 90 90 89 88 87 86 84 81 78 76 75 74 73 72 70 69 68 67 65 64 63 62 61 61 60 60 59 59 59 59 59 60 60 60 60 60 60 61 61 61 61 62 62 63 63 63 65 66 67 67 68 68 66 64 62 61 59 58 58 58 58 58 58 57 56 55 53 51 52 53 56 59 60 61 61 62 64 64
91 92 93 94 95 94 94 93 91 89 87 86 85 82 79 76 74 73 72 71 70 69 68 66 65 63 63 62 61 61 60 60 59 59 58 59 59 59 59 60 60 60 60 60 60 60 60 60 61 61 62 62 61 63 64 65 65 66 65 63 61 59 58 57 56 56 56 56 55 53 52 51 49 48 48 49 52 54 57 58 58 59 60 59 58
94 96 97 99 99 98 97 95 92 89 87 84 82 79 76 74 73 71 70 69 68 67 66 64 63 62 61 61 61 60 60 59 58 58 58 58 58 58 58 58 59 58 58 58 58 58 58 59 60 60 60 60 60 61 62 63 62 62 61 60 58 57 55 55 54 54 53 52 50 48 47 47 46 47 48 49 50 52 54 55 56 57 57 54 53
98 100 101 102 102 100 99 96 93 89 85 81 79 76 74 73 71 70 68 67 66 64 63 62 61 60 60 60 60 59 59 58 57 57 57 57 57 57 57 57 57 57 57 57 57 57 57 57 58 58 59 59 59 59 60 60 59 58 58 58 57 55 54 53 53 52 50 47 45 44 44 44 44 45 46 47 48 50 52 54 54 54 52 49 51
102 103 104 104 104 103 100 95 91 87 82 78 75 73 72 71 69 68 66 64 63 61 60 60 59 59 59 59 59 58 57 57 56 56 56 56 56 56 56 56 56 56 56 56 56 56 56 56 56 57 57 57 58 57 57 56 56 55 56 56 55 53 53 52 51 49 46 44 43 42 41 41 42 43 44 45 46 48 50 51 50 48 46 48 50
105 105 106 106 105 102 97 92 88 84 80 76 73 70 69 68 67 65 64 62 60 58 58 57 57 57 57 57 57 57 56 55 55 55 55 55 55 55 55 55 55 55 55 55 55 55 55 55 55 55 55 55 55 55 54 54 54 53 53 53 53 52 52 52 50 46 44 42 41 39 37 38 40 42 43 44 44 45 47 47 45 45 46 48 49
108 108 107 106 102 97 92 88 84 81 78 75 72 69 67 66 64 63 61 59 57 56 55 55 56 56 56 55 55 55 55 54 54 54 53 53 54 54 54 54 54 54 54 54 54 54 54 53 53 53 53 52 51 51 52 53 53 51 50 50 50 50 50 50 48 45 43 41 39 36 35 35 37 40 41 41 42 43 44 44 43 45 46 47 46
110 109 106 101 95 90 86 83 80 78 75 72 70 67 65 63 62 60 57 55 54 53 53 53 54 54 54 54 54 53 53 53 53 52 52 52 53 53 53 53 53 53 53 53 53 53 53 53 52 52 50 49 47 48 50 52 52 50 48 47 48 48 49 49 47 45 42 40 37 35 34 33 34 36 38 40 40 41 41 42 42 43 44 44 44
110 106 101 96 91 87 83 80 77 75 73 70 68 65 62 60 58 56 54 52 51 51 51 51 52 52 52 52 52 52 52 52 51 51 51 51 51 51 51 52 52 52 52 52 52 52 52 52 50 49 47 46 45 46 48 50 51 49 46 45 45 46 47 47 46 44 42 40 37 35 34 32 31 32 34 37 38 38 39 40 40 41 42 42 41
106 101 97 93 90 86 82 79 76 74 71 68 65 62 58 56 55 53 51 50 49 49 49 50 50 50 51 51 50 50 50 50 50 50 50 50 50 50 50 50 51 51 51 51 51 51 51 50 48 46 45 44 44 44 45 47 49 47 45 44 43 43 44 46 46 44 42 39 38 37 35 32 30 30 31 33 34 35 36 37 38 38 40 39 37
100 97 95 92 88 85 81 78 75 71 68 64 60 57 54 52 51 50 48 47 47 47 47 48 49 49 49 49 49 49 48 48 49 49 49 49 49 49 49 49 50 50 50 50 50 50 49 48 47 45 43 42 42 42 43 45 46 46 44 42 41 41 42 44 45 44 43 41 39 38 36 34 31 29 29 30 32 32 33 35 36 36 37 36 33
97 96 94 90 86 83 79 76 72 67 63 58 55 52 50 49 48 47 46 45 45 45 46 46 47 48 48 48 47 47 47 47 47 47 47 47 47 48 48 49 49 49 49 48 48 48 47 47 46 44 43 41 40 41 42 43 44 45 44 41 40 39 40 42 43 43 42 41 41 40 37 36 33 30 28 29 30 30 31 32 33 34 34 32 30
96 94 92 88 84 81 77 73 67 62 57 53 50 49 48 47 45 44 43 43 43 44 44 45 46 46 46 46 46 46 46 46 46 45 45 46 46 47 47 47 48 49 48 47 47 47 47 47 46 44 43 41 39 38 40 41 42 43 43 41 39 39 39 40 40 40 39 39 40 39 37 36 35 32 29 28 28 29 30 30 31 31 31 30 29
94 92 89 85 82 79 74 68 62 57 53 50 48 47 46 44 43 42 41 42 42 43 43 44 45 45 45 45 44 44 44 44 44 44 44 44 45 46 46 46 46 47 47 47 47 47 46 46 44 42 40 39 36 35 36 37 39 40 39 38 37 38 39 39 38 37 37 38 38 37 36 35 34 32 31 29 28 28 28 28 29 29 29 28 28
92 90 86 83 79 75 69 63 58 53 50 48 46 45 43 41 40 40 40 41 42 42 43 43 44 43 43 43 43 43 43 43 43 43 43 42 42 43 45 45 45 45 45 46 46 47 46 45 43 41 38 37 35 34 33 34 36 36 36 34 33 35 37 38 37 36 36 36 36 35 34 33 32 31 30 29 27 26 26 27 28 28 27 27 27
Wind_Direction
285 285 285 284 284 283 283 282 282 281 280 280 279 278 278 277 277 276 276 275 275 275 275 274 274 274 274 274 273 273 272 272 271 271 270 270 270 269 269 269 268 268 268 267 267 267 267 267 267 266 266 265 265 264 264 263 263 262 262 261 261 260 260 260 259 259 259 259 259 259 259 260 261 262 262 263 263 263 263 263 263 262 261 260 259
283 283 283 283 283 282 282 282 281 281 280 280 279 279 278 277 277 276 276 275 275 275 274 274 273 273 273 272 272 272 271 271 270 270 270 269 269 269 268 268 267 267 267 266 266 266 266 266 266 266 266 265 265 264 264 263 263 262 261 261 261 260 260 260 260 260 260 259 259 259 259 260 261 262 262 262 263 263 263 262 262 262 261 260 259
283 283 282 282 282 281 281 281 280 280 280 279 279 278 278 277 276 276 275 274 274 274 273 273 272 272 272 271 271 271 271 270 270 270 269 269 269 268 268 267 267 266 266 266 265 265 265 265 265 265 264 264 263 263 263 262 262 261 261 260 260 260 260 260 260 260 260 260 260 260 259 260 260 261 262 263 262 262 262 262 262 261 261 261 261
285 284 283 283 282 281 280 280 279 279 279 278 278 277 277 277 276 275 275 274 273 273 273 272 272 272 271 271 271 271 271 270 270 270 269 269 269 269 268 268 267 267 267 266 266 266 265 265 264 264 263 263 262 261 261 261 260 260 260 259 259 259 259 259 259 259 259 259 259 260 260 260 260 260 261 262 262 262 262 262 262 261 261 261 262
288 287 286 285 284 283 282 281 280 279 279 278 278 278 277 277 277 276 276 275 274 274 273 273 272 272 272 272 272 271 271 271 270 270 270 269 269 269 268 268 267 267 267 267 266 266 265 265 265 264 263 263 262 261 260 260 260 260 259 259 259 258 258 258 258 259 259 259 259 259 260 260 260 260 260 260 260 261 262 262 262 261 262 262 262
293 291 290 289 288 287 286 284 283 282 281 280 280 279 279 279 278 277 276 276 275 275 274 274 274 274 273 274 274 274 273 273 273 272 272 272 271 271 271 270 269 268 268 267 267 266 266 266 265 264 264 263 263 262 261 261 260 260 260 259 259 259 258 258 257 258 258 258 259 259 260 260 260 260 259 258 258 259 260 261 261 261 262 262 263
300 298 297 295 294 293 292 291 289 288 287 285 284 283 282 281 280 279 279 278 277 277 277 276 276 276 276 276 276 277 277 277 277 276 276 275 275 275 275 274 273 272 271 270 269 268 267 267 267 266 266 265 264 264 263 262 262 261 261 261 260 260 259 258 258 257 258 258 258 259 259 259 259 259 258 258 257 257 258 260 261 261 262 262 263
310 308 306 305 303 302 301 300 299 298 296 294 292 289 286 284 282 281 280 280 280 280 280 280 280 280 279 279 279 279 279 279 279 279 279 279 278 278 278 278 277 276 275 274 273 272 271 270 270 269 269 268 267 266 266 265 264 264 263 263 262 261 261 260 259 258 258 258 258 259 259 259 259 259 258 258 257 256 256 258 260 261 262 263 263
320 318 316 315 313 312 310 309 308 307 306 304 302 300 297 293 290 287 285 283 283 282 282 283 283 283 283 283 282 282 281 281 280 280 280 279 279 279 279 279 279 278 277 277 276 275 274 273 273 272 271 271 270 269 269 268 267 267 266 266 265 264 263 262 261 260 259 259 259 259 260 259 259 259 259 259 258 257 256 256 258 259 261 262 263
325 324 323 322 320 319 318 317 315 315 314 313 312 310 309 307 304 301 298 295 292 289 287 286 285 285 284 284 283 283 283 282 281 281 280 279 279 279 278 278 278 278 277 277 276 276 275 274 274 273 273 272 271 271 271 270 270 269 269 268 268 267 266 265 263 262 261 261 260 260 260 261 261 260 260 260 260 259 258 257 257 258 259 260 262
325 324 324 323 323 322 321 320 320 319 318 317 316 314 312 311 309 308 306 304 301 299 296 293 291 288 287 285 284 283 282 281 281 281 281 280 279 279 278 278 278 277 277 277 276 276 275 274 274 273 273 272 272 271 271 271 270 270 270 269 269 269 268 268 267 265 264 263 263 262 262 262 262 262 262 262 261 261 260 259 259 259 259 259 260
325 324 324 324 324 323 322 321 319 319 318 317 315 314 313 311 310 309 307 306 304 302 301 299 297 295 293 291 288 286 285 283 282 281 280 280 279 279 278 278 278 278 278 277 277 276 276 275 275 274 274 273 272 272 271 271 270 270 270 270 269 269 269 269 269 268 267 266 265 265 264 264 263 263 263 263 263 263 262 261 260 260 260 259 259
325 324 324 324 324 323 322 321 319 318 317 316 315 313 312 310 309 308 306 305 304 302 301 300 298 297 296 295 293 292 290 288 286 284 282 281 280 279 278 278 277 277 277 277 277 277 277 276 276 276 275 274 274 273 272 272 271 271 271 270 270 270 270 269 269 269 269 268 267 267 266 266 265 265 265 264 264 264 264 263 262 262 261 260 260
324 324 324 324 324 323 322 321 319 318 316 315 314 312 311 309 308 306 305 304 303 301 300 299 298 297 296 295 294 293 292 291 290 289 287 285 284 282 280 279 278 277 277 277 277 276 276 276 276 276 276 276 275 275 274 274 273 273 272 272 272 271 271 270 270 270 270 269 269 268 268 267 267 266 266 265 265 265 265 264 263 262 262 261 259
324 324 324 324 323 322 321 320 318 317 316 315 314 312 310 309 307 306 305 304 303 301 300 299 298 297 296 295 294 294 293 292 291 290 289 288 286 285 283 282 280 279 278 278 277 276 276 276 276 276 276 276 276 276 275 275 275 274 274 273 273 273 272 272 271 271 271 270 270 270 269 268 268 268 267 267 266 266 266 265 264 263 261 260 259
324 323 323 323 322 322 320 319 317 317 316 315 314 312 311 309 308 306 305 304 303 302 300 299 298 297 296 296 295 294 293 292 292 291 290 289 288 286 285 284 283 281 280 279 278 278 277 276 276 276 276 276 276 276 275 275 275 275 275 274 274 273 273 273 272 272 272 271 271 271 270 270 269 269 269 268 268 267 267 266 265 264 262 259 258
323 323 323 323 322 321 320 318 317 317 316 315 314 313 312 310 309 308 306 305 304 303 302 301 300 299 298 297 296 295 294 293 292 292 291 291 290 288 287 286 285 284 283 281 280 279 279 278 277 276 276 276 276 275 275 275 275 274 274 274 274 273 273 273 273 272 272 272 272 271 271 271 270 270 269 269 268 268 267 267 266 265 263 261 258
322 322 322 322 321 320 319 317 317 317 316 315 314 313 313 312 310 309 307 306 305 304 303 302 301 300 299 298 297 296 295 294 293 293 292 291 290 289 288 287 286 285 284 283 281 280 279 279 278 277 277 276 276 276 275 275 274 274 274 273 273 273 272 272 272 272 272 272 271 271 271 271 270 270 270 269 269 268 267 267 266 266 265 263 261
323 322 321 321 320 319 318 317 317 318 317 316 315 313 312 311 310 309 308 306 305 305 304 303 302 301 300 299 298 297 296 295 294 293 292 291 290 289 288 287 286 285 284 283 282 281 280 279 278 278 277 277 276 276 276 275 275 274 274 273 273 272 272 272 271 271 271 271 271 270 270 270 270 269 269 269 268 268 268 267 267 266 266 265 264
322 321 320 319 319 318 318 317 317 317 316 315 314 313 312 311 310 309 308 307 306 305 305 304 303 302 301 300 299 298 297 296 295 294 293 292 291 289 288 287 286 285 284 283 282 281 280 279 278 278 277 277 276 276 276 276 276 275 275 274 273 273 272 272 271 271 270 270 269 269 269 269 268 268 268 268 267 267 267 267 266 266 266 265 265
322 321 320 318 316 316 316 316 316 316 316 315 314 314 313 311 311 310 308 308 307 306 306 305 304 303 303 301 300 299 298 297 296 295 294 293 291 290 289 288 287 286 285 284 283 282 281 280 279 278 277 277 276 276 276 275 275 275 274 274 274 274 273 273 272 271 271 270 269 268 268 267 267 267 266 266 266 266 265 265 265 265 265 265 264
322 322 320 318 316 315 315 315 316 317 317 317 316 315 314 312 311 310 309 308 307 307 306 306 305 304 303 302 301 300 299 298 297 296 294 293 292 290 289 288 287 287 286 285 284 283 282 281 280 279 278 277 276 276 275 275 274 274 273 273 273 273 273 272 272 272 271 271 270 269 269 268 267 267 266 265 265 264 264 263 263 263 262 262 262
323 322 321 319 317 316 316 316 317 317 317 317 316 316 315 312 311 311 310 309 308 307 307 306 305 305 304 303 301 300 299 299 298 296 295 293 292 291 289 289 288 287 286 285 284 283 282 282 281 280 279 278 277 277 276 275 275 274 273 273 273 272 272 271 271 270 270 270 269 269 269 268 267 267 266 266 265 264 263 263 262 262 261 261 260
325 324 322 320 318 316 315 315 315 316 316 316 316 316 316 314 312 312 310 309 308 308 307 306 305 305 304 303 302 301 300 299 298 296 295 293 292 290 289 289 288 288 287 286 285 284 283 282 281 281 280 280 279 278 277 277 276 275 275 274 274 273 272 272 271 270 270 269 269 268 268 267 267 267 266 265 265 264 264 263 262 262 261 260 260
325 324 322 320 318 316 315 314 315 315 316 316 316 317 317 315 313 312 311 310 309 308 307 307 306 305 304 303 302 301 300 299 297 296 295 293 292 291 290 289 289 288 287 286 285 285 284 283 282 282 281 281 280 280 279 279 278 277 277 276 275 275 274 273 272 272 271 270 270 269 269 268 267 267 266 266 265 264 264 263 263 262 261 261 260
324 322 321 319 317 316 315 314 315 315 315 316 316 316 317 316 313 312 311 310 309 308 307 307 306 305 304 303 303 301 300 299 297 296 295 293 292 291 290 290 289 289 288 287 286 286 285 285 284 283 283 282 282 281 281 280 279 279 278 277 276 276 275 274 273 273 272 272 271 270 270 269 269 268 267 266 266 265 264 264 263 262 262 261 260
322 321 320 318 316 315 314 313 314 314 315 315 315 316 317 316 313 312 311 310 309 308 307 306 306 305 304 303 302 302 300 299 297 296 294 293 292 292 291 291 290 290 289 288 287 286 286 286 285 284 284 283 283 282 281 281 280 280 279 278 277 276 275 275 274 274 273 272 272 271 271 270 269 269 268 267 266 266 265 264 264 263 263 262 261
322 321 320 318 316 314 313 313 313 313 314 314 314 315 316 315 313 312 311 310 309 308 307 306 305 304 304 303 302 302 301 299 297 295 294 293 292 292 291 291 291 291 290 289 288 287 287 287 286 285 284 284 284 283 282 282 281 280 279 278 277 276 275 275 275 274 274 273 273 272 271 271 270 269 268 268 267 266 266 265 265 264 263 263 262
322 321 319 317 315 314 313 313 313 313 313 314 314 314 315 314 312 311 310 309 308 307 306 305 304 304 303 302 302 301 300 299 297 295 294 293 293 292 291 291 291 291 290 290 289 288 287 287 286 285 285 285 284 284 283 283 282 281 280 279 278 277 277 276 275 275 274 274 273 272 271 271 270 270 269 268 267 267 266 265 265 264 264 263 263
321 320 318 317 314 313 312 312 312 312 312 313 313 313 314 313 311 310 310 309 308 306 305 304 303 303 302 301 301 300 299 298 297 295 294 293 293 292 291 291 291 291 290 290 289 289 288 288 287 286 286 286 285 285 284 284 283 282 281 280 279 279 279 278 277 277 276 275 275 274 273 272 271 270 269 268 267 267 266 265 264 264 264 263 262
321 319 318 316 314 313 312 312 312 312 312 312 312 312 313 312 310 309 309 308 307 305 304 303 302 302 301 301 300 300 299 298 297 295 294 294 293 292 292 291 291 291 290 290 290 289 289 288 288 288 288 287 287 286 286 285 285 284 283 282 281 280 280 279 279 278 277 276 275 275 274 273 272 271 270 269 268 267 266 265 265 264 263 262 262
320 319 318 316 314 313 313 312 312 312 312 313 312 312 312 311 309 308 307 306 305 304 303 302 302 301 301 300 300 299 299 298 296 295 294 293 293 292 292 291 291 290 290 290 290 290 289 289 289 289 289 288 288 287 287 287 286 286 286 285 284 283 283 282 281 279 278 277 276 275 274 273 273 272 271 270 269 268 267 267 266 265 263 263 262
319 318 317 316 315 313 313 313 313 313 313 313 312 311 311 310 308 307 306 305 304 303 302 301 301 300 300 299 299 298 298 297 296 295 294 293 292 292 292 292 291 290 290 290 290 290 289 289 289 290 290 289 289 288 288 288 288 288 288 287 287 286 286 284 283 281 280 278 277 276 274 273 272 272 271 270 270 269 268 268 267 266 265 264 263
319 318 317 315 314 314 314 314 314 313 313 313 311 311 310 309 308 307 305 304 303 302 302 301 300 300 299 298 298 298 297 297 296 295 294 293 292 292 292 291 291 291 290 290 290 290 290 290 290 290 290 290 290 290 289 290 289 289 289 290 289 289 288 286 285 283 282 280 279 277 276 274 273 273 272 271 270 269 268 267 266 265 264 264 263
318 317 316 315 315 315 315 315 314 314 313 312 311 311 310 309 307 306 304 303 302 302 301 300 300 299 299 298 298 297 297 297 296 294 294 293 292 292 291 291 291 291 291 291 291 291 291 291 291 291 291 291 291 291 291 291 291 291 291 291 291 290 289 287 286 285 284 282 281 279 278 277 275 274 273 271 270 269 267 265 264 263 263 262 261
319 318 318 317 316 317 316 315 314 314 313 312 311 311 310 309 307 306 304 303 302 302 301 300 300 299 298 297 297 297 297 296 296 295 294 293 292 292 292 291 291 291 291 291 291 291 291 291 291 291 291 291 292 292 292 292 292 292 292 291 291 290 289 288 287 286 285 284 283 281 280 278 276 274 273 272 271 269 267 265 263 263 262 261 261
320 319 318 317 317 317 316 316 315 314 313 312 311 310 309 308 307 305 304 303 302 302 301 300 300 299 298 297 297 296 296 296 296 295 294 293 293 292 292 292 292 291 291 291 291 292 292 291 292 292 292 292 293 293 293 293 293 293 292 292 291 290 290 289 288 287 286 285 284 282 280 278 277 275 274 272 270 268 267 265 264 263 262 262 262
320 318 318 317 317 317 316 316 315 314 313 311 310 309 309 308 306 305 304 303 302 301 301 300 299 298 297 297 297 296 297 297 296 296 295 294 294 293 293 293 292 292 292 292 292 292 292 292 292 292 293 293 293 293 294 294 294 293 292 291 291 290 290 289 288 287 286 285 284 282 281 279 277 275 273 270 269 268 268 267 266 265 264 264 264
319 318 318 317 317 317 317 316 315 314 312 311 310 309 308 307 306 305 304 303 302 301 301 300 298 298 297 297 296 297 297 297 297 296 295 295 294 294 294 293 293 293 292 292 292 292 293 293 293 294 294 294 294 294 294 294 293 292 292 291 291 291 290 289 288 286 285 285 284 282 280 278 277 275 273 272 271 271 270 269 269 268 267 268 267
319 318 318 318 318 318 317 316 315 314 313 311 310 309 308 306 305 305 304 303 302 302 301 299 298 298 297 297 297 298 298 298 297 297 296 296 295 294 294 294 294 293 293 293 293 293 294 294 294 295 295 295 295 295 294 294 292 292 291 292 292 292 291 289 287 287 286 285 282 279 278 278 278 277 276 275 273 272 272 271 270 271 272 271 268
319 319 319 318 318 318 317 316 315 314 313 311 310 309 307 306 305 305 304 303 303 302 300 299 299 298 298 298 298 299 299 299 298 297 297 296 296 295 295 295 295 295 295 295 295 295 295 295 296 296 296 296 296 296 294 292 292 292 292 293 293 293 291 290 289 288 287 284 280 278 278 279 280 279 277 275 273 272 272 272 273 274 274 271 268
320 320 320 319 319 318 318 317 316 314 313 311 310 308 307 306 305 305 305 305 304 302 300 300 299 298 298 299 299 299 300 299 298 298 297 297 297 296 296 296 296 296 296 296 296 296 296 297 297 297 297 298 297 296 294 292 292 293 293 293 293 293 292 291 290 289 286 283 280 279 279 280 279 278 276 275 274 273 272 273 274 274 271 270 270
321 321 321 320 320 319 319 318 316 315 313 312 310 308 307 306 306 306 306 306 304 302 301 300 300 299 299 300 300 300 300 299 299 299 298 298 297 297 297 297 297 297 297 297 297 297 298 298 298 298 299 298 297 295 294 293 293 293 294 293 293 293 292 292 291 289 286 283 282 281 280 279 279 278 277 275 273 272 273 273 273 272 272 272 272
322 322 322 321 321 321 320 318 316 315 313 311 310 308 307 307 307 307 307 306 304 303 302 301 300 300 301 301 301 301 301 300 300 300 299 299 298 298 298 298 298 298 298 298 298 299 299 299 299 299 299 298 297 295 294 293 293 293 293 293 293 293 293 291 290 289 287 285 284 282 280 279 279 277 275 273 272 273 273 273 273 273 273 273 272
324 324 324 323 323 322 320 318 316 314 313 311 310 309 308 308 308 308 307 306 305 304 303 302 301 301 302 302 302 302 302 302 301 301 301 300 300 300 299 299 299 299 299 300 300 300 300 300 300 300 299 298 297 296 294 293 293 294 294 293 293 293 292 291 290 289 288 288 288 285 282 282 282 277 273 272 273 274 274 274 274 274 273 272 271
326 326 326 325 324 323 321 319 317 315 313 312 311 310 309 309 309 308 308 307 306 305 304 303 303 303 303 303 303 303 303 303 303 302 302 302 301 301 301 300 300 300 301 301 302 302 302 301 301 301 300 299 298 296 294 293 293 294 294 293 293 292 292 291 290 290 290 291 291 288 286 287 287 281 274 273 274 275 276 276 275 273 271 270 268
328 328 327 326 325 323 322 320 318 316 315 313 312 311 310 309 309 309 309 308 307 305 305 304 304 304 304 304 305 305 305 304 304 304 304 303 303 303 302 302 302 302 303 304 303 303 303 303 302 302 302 301 298 296 294 293 293 293 293 293 293 292 291 290 290 290 292 292 291 289 288 290 290 285 279 276 277 278 278 276 274 271 269 267 265
330 329 328 326 325 324 323 321 320 318 316 314 312 311 310 310 310 311 311 309 307 306 306 306 305 306 306 306 307 307 306 306 305 305 305 305 304 304 304 304 303 304 305 305 304 304 304 303 304 303 302 301 299 296 294 293 292 292 292 292 291 290 287 286 287 288 290 291 290 290 290 291 291 289 284 281 280 280 278 274 271 268 266 263 261
331 330 329 328 327 326 325 323 321 319 317 315 313 312 311 312 313 313 312 310 309 308 308 307 307 308 308 309 309 308 308 307 307 307 307 307 306 306 305 306 306 306 307 307 306 306 306 305 306 306 305 303 301 299 296 295 293 292 291 290 288 285 282 281 281 283 285 285 285 287 288 289 291 291 288 284 282 281 277 271 265 263 261 260 259
333 332 332 331 330 328 327 326 324 321 319 317 315 315 316 317 317 315 313 312 311 310 310 310 310 311 311 311 311 310 310 309 309 309 309 309 308 308 308 308 308 309 309 309 308 308 307 307 307 307 306 304 303 300 297 295 294 293 292 292 289 285 281 278 277 278 280 280 281 282 284 285 288 289 287 284 282 280 274 267 261 258 257 257 256
335 335 335 334 333 332 331 330 328 325 323 321 320 321 322 321 319 317 316 315 314 314 314 314 314 314 314 314 313 312 312 311 311 311 311 311 311 311 310 310 311 311 311 311 310 309 309 309 308 308 306 305 303 301 299 297 295 294 295 296 294 290 285 281 277 276 276 278 279 279 280 282 284 285 284 282 281 278 271 262 257 254 252 251 250
Height
5653 5651 5648 5645 5643 5641 5638 5636 5633 5631 5628 5626 5624 5621 5619 5617 5615 5612 5610 5607 5605 5603 5601 5600 5597 5595 5594 5592 5591 5588 5588 5587 5585 5584 5583 5581 5580 5579 5578 5577 5577 5576 5575 5575 5574 5573 5573 5573 5571 5571 5572 5571 5571 5571 5570 5570 5571 5572 5573 5573 5574 5574 5574 5573 5573 5575 5577 5579 5580 5582 5583 5583 5584 5585 5586 5587 5589 5591 5593 5595 5597 5599 5601 5602 5604
5646 5643 5640 5638 5636 5633 5631 5628 5625 5623 5620 5618 5615 5613 5611 5608 5606 5604 5601 5599 5596 5594 5592 5590 5588 5586 5584 5582 5581 5578 5577 5576 5575 5573 5573 5571 5569 5569 5567 5566 5566 5565 5565 5564 5563 5563 5563 5562 5561 5561 5561 5560 5561 5560 5560 5560 5560 5561 5563 5563 5563 5563 5563 5563 5563 5564 5566 5568 5569 5571 5573 5573 5574 5574 5575 5577 5579 5581 5583 5585 5587 5588 5590 5592 5594
5639 5636 5633 5631 5628 5625 5623 5620 5617 5615 5612 5610 5607 5605 5602 5600 5598 5595 5593 5590 5587 5585 5583 5581 5579 5577 5575 5572 5571 5569 5567 5566 5565 5563 5562 5561 5559 5558 5557 5556 5555 5554 5554 5554 5553 5553 5553 5551 5551 5550 5550 5550 5550 5550 5549 5549 5549 5550 5552 5553 5552 5552 5553 5553 5553 5553 5555 5556 5557 5560 5562 5563 5565 5564 5564 5566 5568 5570 5572 5574 5577 5578 5580 5582 5584
5632 5629 5626 5623 5620 5617 5615 5612 5609 5606 5604 5601 5599 5596 5594 5591 5589 5586 5584 5582 5579 5576 5574 5572 5570 5568 5565 5563 5561 5560 5558 5556 5555 5554 5552 5551 5550 5548 5547 5546 5545 5544 5544 5543 5542 5543 5542 5540 5540 5540 5539 5539 5539 5539 5538 5538 5538 5540 5541 5541 5541 5542 5543 5543 5543 5542 5543 5544 5546 5548 5550 5551 5554 5554 5555 5557 5557 5558 5561 5563 5566 5568 5569 5572 5574
5624 5621 5618 5615 5612 5609 5607 5604 5601 5598 5595 5593 5590 5587 5585 5583 5580 5578 5575 5573 5570 5568 5565 5563 5561 5559 5556 5554 5552 5550 5548 5547 5545 5544 5542 5541 5540 5538 5536 5536 5535 5534 5533 5533 5532 5533 5532 5529 5529 5530 5528 5528 5528 5528 5528 5528 5528 5529 5529 5530 5530 5530 5532 5533 5533 5532 5532 5533 5533 5536 5537 5539 5542 5543 5545 5547 5547 5547 5550 5552 5554 5556 5559 5561 5563
5617 5614 5610 5607 5604 5601 5598 5595 5593 5590 5587 5584 5581 5579 5576 5574 5571 5569 5566 5564 5561 5559 5556 5553 5551 5549 5547 5545 5543 5541 5539 5537 5536 5534 5533 5531 5530 5528 5526 5525 5524 5524 5523 5522 5521 5521 5522 5519 5518 5518 5518 5517 5517 5517 5517 5517 5517 5517 5517 5518 5519 5519 5520 5522 5523 5522 5521 5522 5522 5523 5525 5526 5530 5531 5532 5536 5538 5538 5539 5541 5543 5545 5547 5550 5552
5610 5606 5603 5600 5597 5594 5590 5587 5585 5582 5579 5576 5573 5570 5568 5565 5563 5560 5558 5555 5552 5550 5546 5544 5541 5539 5537 5535 5533 5531 5529 5527 5525 5524 5523 5521 5520 5518 5516 5514 5513 5512 5512 5511 5510 5510 5510 5509 5507 5507 5507 5506 5506 5505 5505 5506 5506 5506 5506 5507 5507 5507 5508 5509 5511 5511 5511 5511 5510 5511 5513 5514 5516 5518 5519 5522 5527 5530 5530 5530 5532 5533 5535 5538 5541
5604 5601 5597 5594 5590 5587 5584 5581 5578 5575 5572 5569 5566 5563 5560 5557 5555 5552 5550 5547 5544 5541 5538 5535 5533 5530 5528 5525 5523 5521 5518 5517 5515 5513 5512 5511 5510 5507 5505 5504 5502 5501 5500 5500 5499 5499 5499 5498 5496 5495 5495 5494 5494 5494 5494 5494 5494 5494 5494 5494 5495 5495 5496 5497 5498 5499 5500 5500 5499 5500 5501 5502 5503 5505 5507 5508 5512 5518 5521 5521 5521 5522 5523 5526 5529
5600 5596 5593 5589 5586 5582 5579 5575 5572 5569 5566 5563 5559 5556 5553 5550 5547 5544 5542 5539 5536 5532 5530 5527 5524 5521 5519 5517 5515 5512 5509 5507 5505 5503 5501 5500 5499 5496 5494 5493 5491 5489 5489 5488 5487 5487 5487 5486 5484 5484 5483 5482 5482 5482 5481 5482 5482 5482 5482 5482 5483 5483 5483 5484 5485 5487 5487 5488 5488 5488 5489 5491 5491 5492 5494 5495 5497 5502 5508 5512 5511 5512 5514 5516 5517
5597 5593 5589 5586 5582 5578 5575 5571 5567 5564 5560 5557 5553 5550 5547 5543 5540 5537 5534 5532 5529 5525 5522 5519 5515 5512 5510 5507 5505 5502 5499 5497 5495 5493 5491 5490 5489 5486 5483 5482 5480 5478 5477 5476 5475 5475 5475 5474 5472 5472 5471 5470 5470 5470 5469 5469 5469 5470 5470 5470 5470 5470 5470 5471 5472 5474 5474 5475 5476 5477 5478 5478 5479 5481 5481 5482 5484 5486 5492 5498 5500 5501 5504 5506 5506
5592 5589 5585 5582 5578 5574 5570 5566 5562 5559 5555 5552 5548 5545 5541 5537 5534 5531 5527 5524 5522 5518 5515 5511 5508 5504 5501 5499 5496 5492 5490 5487 5485 5483 5480 5479 5478 5475 5472 5471 5469 5467 5466 5464 5463 5463 5463 5462 5460 5460 5459 5458 5458 5458 5457 5457 5457 5457 5457 5457 5457 5457 5458 5458 5459 5460 5461 5462 5463 5464 5465 5466 5467 5469 5470 5470 5471 5473 5476 5482 5486 5487 5491 5496 5496
5587 5584 5580 5576 5572 5568 5565 5561 5557 5553 5550 5546 5542 5539 5535 5531 5527 5524 5520 5517 5514 5511 5507 5503 5500 5496 5493 5490 5487 5483 5480 5477 5475 5473 5470 5468 5466 5463 5461 5459 5457 5455 5454 5452 5451 5450 5450 5449 5448 5447 5446 5445 5445 5445 5445 5445 5445 5445 5445 5445 5445 5445 5445 5445 5446 5447 5447 5449 5450 5451 5452 5454 5455 5456 5457 5458 5459 5461 5462 5466 5472 5472 5476 5484 5485
5582 5578 5574 5570 5566 5562 5558 5554 5550 5547 5543 5539 5536 5532 5528 5525 5521 5517 5514 5510 5506 5503 5500 5496 5492 5488 5484 5480 5477 5474 5471 5467 5464 5462 5459 5457 5455 5451 5449 5447 5445 5443 5441 5440 5438 5437 5436 5435 5434 5434 5433 5432 5431 5431 5431 5431 5431 5432 5432 5432 5432 5432 5432 5432 5433 5434 5435 5436 5437 5438 5439 5440 5442 5443 5444 5445 5446 5448 5448 5452 5457 5457 5460 5469 5472
5577 5573 5568 5564 5560 5556 5552 5548 5545 5541 5537 5533 5530 5526 5522 5518 5514 5511 5507 5503 5499 5495 5492 5488 5484 5480 5476 5472 5468 5465 5461 5458 5454 5451 5449 5446 5443 5440 5437 5435 5433 5431 5429 5427 5425 5424 5423 5422 5421 5420 5419 5418 5418 5417 5417 5417 5417 5417 5418 5418 5418 5418 5418 5419 5420 5420 5421 5422 5423 5424 5426 5427 5428 5429 5430 5432 5433 5434 5435 5437 5441 5443 5446 5453 5457
5571 5567 5563 5559 5555 5551 5547 5543 5539 5535 5531 5527 5524 5520 5515 5511 5508 5504 5500 5495 5491 5487 5483 5480 5476 5471 5467 5463 5459 5455 5452 5448 5444 5441 5438 5435 5432 5429 5425 5423 5421 5419 5417 5414 5412 5411 5409 5408 5407 5406 5405 5404 5404 5403 5403 5403 5403 5403 5404 5404 5404 5403 5404 5405 5406 5406 5407 5408 5408 5410 5412 5414 5415 5415 5416 5418 5419 5420 5422 5423 5425 5428 5432 5437 5442
5566 5561 5557 5553 5549 5545 5541 5537 5533 5529 5525 5520 5517 5513 5509 5504 5500 5496 5492 5488 5483 5479 5475 5471 5467 5463 5458 5454 5449 5445 5442 5438 5434 5430 5427 5424 5422 5418 5415 5412 5410 5407 5405 5403 5400 5398 5397 5395 5394 5393 5392 5391 5390 5389 5389 5389 5389 5389 5389 5390 5389 5389 5390 5391 5391 5392 5393 5394 5395 5396 5398 5399 5401 5401 5402 5403 5404 5405 5407 5409 5410 5412 5416 5421 5427
5560 5556 5552 5548 5544 5540 5535 5531 5527 5523 5518 5514 5509 5505 5501 5497 5492 5488 5484 5480 5475 5470 5466 5462 5458 5453 5449 5444 5440 5435 5431 5427 5424 5420 5416 5413 5410 5407 5404 5401 5398 5396 5394 5391 5389 5387 5385 5383 5382 5380 5379 5377 5376 5376 5375 5375 5375 5375 5375 5375 5375 5375 5375 5377 5377 5378 5379 5379 5381 5382 5383 5385 5386 5387 5388 5389 5390 5391 5392 5394 5396 5397 5399 5404 5410
5555 5551 5547 5543 5539 5535 5531 5525 5521 5517 5512 5507 5501 5496 5492 5488 5484 5479 5475 5471 5466 5461 5456 5451 5447 5443 5439 5434 5430 5425 5421 5417 5413 5409 5405 5402 5399 5396 5393 5390 5387 5385 5383 5380 5378 5376 5374 5372 5370 5369 5367 5365 5364 5363 5362 5362 5361 5362 5361 5360 5360 5360 5361 5362 5362 5363 5364 5365 5366 5367 5368 5370 5371 5372 5374 5375 5376 5377 5378 5379 5380 5382 5383 5386 5392
5548 5544 5540 5536 5533 5529 5525 5520 5515 5511 5506 5500 5494 5489 5484 5480 5475 5471 5466 5462 5457 5452 5448 5442 5437 5433 5428 5424 5419 5415 5410 5406 5402 5398 5395 5391 5388 5386 5383 5380 5377 5374 5372 5370 5368 5365 5363 5362 5360 5358 5356 5354 5353 5352 5351 5350 5349 5349 5348 5347 5347 5347 5347 5349 5348 5348 5349 5350 5351 5352 5353 5355 5356 5357 5359 5360 5361 5362 5363 5365 5366 5368 5368 5370 5374
5543 5539 5534 5530 5525 5521 5517 5512 5508 5505 5501 5496 5490 5484 5478 5473 5468 5463 5457 5453 5448 5443 5439 5433 5428 5423 5418 5413 5409 5404 5400 5395 5391 5388 5384 5381 5377 5375 5372 5369 5366 5364 5361 5359 5357 5355 5353 5351 5349 5347 5346 5344 5343 5341 5340 5339 5338 5337 5336 5335 5335 5334 5335 5336 5335 5335 5335 5336 5337 5338 5339 5340 5340 5342 5343 5344 5346 5347 5348 5350 5350 5352 5353 5354 5357
5537 5534 5529 5525 5520 5515 5510 5506 5503 5499 5495 5490 5484 5478 5472 5465 5459 5455 5449 5443 5438 5433 5428 5423 5418 5413 5408 5403 5398 5394 5389 5385 5381 5377 5373 5370 5367 5364 5361 5358 5356 5353 5350 5348 5346 5344 5342 5340 5339 5337 5335 5334 5332 5331 5330 5328 5328 5326 5325 5324 5324 5324 5324 5324 5323 5323 5323 5322 5324 5325 5326 5326 5326 5327 5329 5329 5331 5332 5332 5334 5335 5336 5338 5338 5339
5533 5528 5524 5519 5513 5508 5502 5498 5493 5489 5485 5480 5475 5470 5464 5457 5450 5446 5440 5434 5429 5424 5419 5413 5408 5403 5398 5393 5388 5383 5379 5375 5371 5367 5363 5360 5356 5354 5351 5348 5346 5343 5340 5338 5335 5333 5331 5330 5328 5326 5324 5323 5322 5320 5319 5318 5317 5315 5315 5314 5313 5313 5313 5313 5312 5312 5312 5311 5312 5313 5313 5313 5312 5313 5315 5315 5316 5317 5317 5319 5320 5319 5322 5323 5323
5527 5521 5516 5510 5504 5498 5491 5486 5482 5478 5475 5471 5466 5462 5457 5449 5442 5437 5431 5425 5419 5414 5409 5404 5398 5393 5388 5383 5378 5373 5369 5364 5360 5357 5353 5350 5346 5344 5341 5338 5336 5333 5330 5328 5325 5323 5321 5319 5317 5316 5314 5313 5311 5310 5308 5307 5305 5304 5304 5304 5303 5302 5302 5302 5302 5301 5301 5300 5300 5301 5301 5301 5300 5301 5303 5303 5303 5303 5303 5304 5305 5304 5306 5309 5308
5517 5511 5505 5499 5494 5489 5483 5477 5472 5468 5464 5460 5457 5453 5448 5441 5433 5427 5422 5415 5409 5404 5399 5394 5388 5383 5378 5373 5368 5363 5359 5355 5351 5347 5343 5340 5337 5334 5331 5329 5326 5323 5321 5318 5316 5313 5311 5309 5307 5305 5304 5302 5300 5299 5297 5295 5294 5293 5293 5293 5292 5291 5291 5291 5291 5290 5290 5289 5289 5290 5290 5289 5288 5289 5291 5291 5289 5289 5289 5289 5291 5292 5292 5294 5294
5506 5501 5496 5491 5486 5480 5475 5468 5462 5457 5453 5448 5443 5440 5436 5430 5423 5417 5411 5405 5399 5393 5388 5383 5377 5372 5367 5362 5357 5353 5349 5345 5341 5337 5333 5330 5327 5324 5322 5319 5316 5314 5311 5308 5306 5304 5301 5299 5297 5295 5293 5292 5290 5288 5286 5284 5282 5281 5281 5281 5280 5280 5280 5279 5279 5278 5278 5278 5278 5278 5278 5276 5276 5277 5278 5277 5276 5275 5275 5276 5277 5279 5278 5279 5280
5500 5495 5489 5483 5478 5472 5466 5459 5452 5446 5441 5437 5431 5427 5424 5419 5412 5406 5400 5394 5388 5382 5377 5372 5366 5361 5357 5352 5347 5343 5339 5335 5331 5327 5324 5320 5317 5314 5312 5309 5307 5304 5302 5299 5296 5294 5292 5290 5287 5285 5283 5281 5279 5277 5275 5273 5271 5270 5270 5270 5269 5268 5268 5268 5268 5267 5266 5266 5266 5266 5266 5264 5264 5264 5265 5264 5262 5261 5262 5262 5263 5264 5264 5264 5266
5497 5490 5483 5477 5471 5465 5459 5452 5446 5438 5432 5426 5420 5416 5413 5408 5401 5394 5389 5383 5377 5371 5365 5360 5355 5350 5346 5341 5337 5333 5329 5325 5321 5317 5314 5310 5307 5305 5302 5299 5297 5294 5292 5289 5287 5284 5282 5280 5278 5276 5273 5271 5269 5266 5264 5262 5260 5260 5259 5258 5257 5257 5257 5257 5256 5256 5255 5254 5254 5253 5253 5252 5251 5251 5251 5250 5249 5248 5248 5249 5249 5250 5249 5249 5251
5490 5483 5476 5469 5463 5457 5451 5444 5438 5430 5423 5417 5410 5405 5401 5396 5389 5383 5378 5372 5366 5360 5355 5349 5344 5340 5335 5331 5326 5323 5319 5315 5311 5307 5304 5301 5298 5295 5292 5290 5287 5285 5282 5280 5277 5275 5272 5270 5268 5266 5263 5261 5259 5256 5253 5251 5250 5249 5247 5246 5246 5246 5246 5246 5245 5244 5243 5242 5241 5240 5239 5238 5237 5237 5237 5236 5235 5234 5233 5235 5236 5235 5234 5235 5236
5482 5475 5468 5461 5455 5448 5442 5436 5429 5422 5415 5408 5400 5394 5390 5386 5378 5372 5367 5361 5355 5350 5344 5339 5334 5330 5325 5320 5317 5313 5309 5305 5301 5297 5294 5291 5288 5285 5283 5280 5278 5275 5273 5270 5268 5265 5263 5261 5258 5256 5254 5251 5249 5245 5242 5240 5239 5238 5236 5235 5234 5234 5234 5234 5233 5233 5231 5229 5228 5227 5226 5225 5224 5222 5222 5221 5220 5219 5218 5220 5222 5220 5219 5220 5221
5474 5467 5461 5454 5447 5441 5435 5428 5422 5415 5407 5400 5392 5384 5379 5374 5367 5360 5355 5349 5344 5339 5334 5329 5324 5320 5315 5311 5307 5303 5300 5296 5292 5288 5285 5282 5279 5276 5273 5271 5268 5266 5263 5261 5258 5256 5253 5251 5249 5246 5244 5241 5238 5234 5231 5229 5227 5225 5223 5223 5224 5224 5223 5222 5221 5220 5219 5217 5214 5212 5211 5211 5210 5208 5208 5206 5205 5204 5203 5204 5206 5206 5205 5204 5204
5465 5459 5452 5446 5439 5432 5426 5420 5413 5406 5399 5392 5384 5376 5370 5363 5356 5349 5344 5338 5332 5327 5322 5318 5313 5309 5305 5301 5298 5294 5290 5287 5283 5279 5276 5272 5270 5267 5264 5262 5259 5257 5254 5251 5249 5246 5244 5241 5239 5237 5234 5230 5227 5223 5220 5218 5216 5212 5210 5210 5212 5213 5211 5210 5209 5208 5206 5204 5201 5199 5198 5196 5195 5193 5192 5191 5190 5189 5188 5188 5189 5190 5189 5188 5187
5456 5449 5442 5436 5429 5422 5416 5410 5403 5396 5389 5381 5373 5366 5360 5353 5346 5340 5334 5328 5322 5317 5312 5307 5303 5299 5295 5291 5288 5285 5281 5277 5274 5270 5267 5264 5261 5258 5255 5253 5250 5248 5245 5242 5239 5237 5234 5232 5229 5227 5224 5220 5216 5212 5209 5207 5204 5200 5197 5197 5198 5199 5199 5198 5196 5194 5192 5191 5189 5187 5185 5183 5181 5179 5177 5175 5175 5174 5173 5172 5172 5173 5172 5172 5170
5447 5440 5433 5426 5419 5412 5405 5399 5392 5385 5378 5371 5363 5355 5349 5342 5335 5329 5323 5317 5312 5306 5301 5297 5293 5289 5285 5281 5278 5275 5272 5268 5264 5261 5258 5254 5251 5249 5246 5244 5242 5239 5236 5233 5230 5228 5225 5222 5219 5217 5214 5210 5206 5201 5198 5195 5192 5188 5185 5184 5185 5186 5185 5184 5182 5179 5178 5177 5175 5173 5171 5170 5168 5166 5164 5162 5161 5160 5159 5158 5157 5156 5156 5156 5156
5439 5431 5424 5417 5410 5402 5395 5387 5379 5372 5365 5358 5352 5345 5339 5332 5325 5319 5312 5306 5300 5295 5291 5287 5283 5279 5275 5271 5268 5265 5262 5259 5255 5251 5248 5245 5242 5240 5237 5234 5232 5230 5227 5224 5221 5218 5216 5212 5209 5206 5204 5201 5195 5190 5187 5184 5181 5177 5174 5172 5172 5173 5172 5170 5168 5166 5164 5163 5161 5159 5157 5157 5156 5154 5152 5150 5148 5148 5147 5145 5143 5141 5142 5143 5143
5429 5422 5415 5408 5400 5393 5385 5376 5367 5360 5352 5345 5338 5331 5326 5321 5314 5308 5301 5295 5290 5285 5280 5276 5272 5269 5265 5261 5258 5255 5252 5249 5246 5242 5239 5236 5233 5230 5227 5225 5223 5221 5218 5215 5212 5209 5206 5203 5199 5196 5194 5191 5185 5180 5176 5173 5169 5166 5164 5162 5160 5160 5159 5157 5155 5153 5151 5150 5148 5145 5144 5144 5143 5142 5141 5138 5136 5134 5133 5131 5130 5129 5129 5130 5130
5416 5408 5400 5393 5386 5380 5373 5364 5356 5347 5340 5332 5324 5317 5312 5306 5301 5295 5289 5284 5279 5274 5269 5265 5262 5258 5254 5251 5248 5245 5242 5239 5236 5233 5230 5226 5223 5221 5218 5215 5213 5211 5208 5205 5202 5199 5197 5194 5190 5186 5184 5182 5176 5169 5165 5163 5159 5155 5153 5151 5149 5148 5147 5145 5144 5141 5139 5137 5136 5134 5132 5131 5131 5130 5130 5128 5124 5121 5118 5118 5118 5118 5118 5118 5120
5402 5394 5387 5380 5373 5367 5360 5352 5344 5335 5326 5318 5311 5304 5298 5293 5288 5283 5277 5272 5268 5263 5259 5255 5252 5248 5244 5241 5238 5235 5233 5230 5227 5224 5220 5217 5214 5211 5208 5206 5204 5201 5198 5195 5193 5190 5187 5184 5181 5177 5174 5172 5168 5160 5155 5153 5149 5144 5141 5140 5139 5138 5136 5135 5133 5130 5128 5126 5125 5123 5121 5120 5120 5120 5119 5117 5113 5108 5106 5106 5107 5108 5108 5108 5111
5391 5383 5375 5368 5362 5355 5347 5340 5333 5325 5315 5306 5298 5292 5286 5281 5276 5271 5267 5262 5257 5252 5249 5245 5242 5238 5234 5231 5228 5225 5223 5220 5217 5214 5211 5207 5204 5201 5198 5196 5194 5192 5189 5186 5183 5180 5178 5174 5171 5168 5164 5162 5159 5152 5146 5143 5139 5134 5130 5130 5129 5128 5127 5125 5123 5120 5118 5116 5115 5113 5111 5110 5110 5109 5107 5105 5102 5098 5096 5097 5097 5097 5098 5100 5104
5384 5373 5363 5355 5349 5342 5333 5325 5319 5312 5303 5295 5287 5281 5275 5270 5265 5260 5256 5251 5246 5243 5239 5235 5231 5228 5224 5221 5218 5216 5214 5211 5208 5205 5201 5198 5195 5192 5189 5186 5184 5182 5179 5176 5173 5171 5169 5165 5161 5158 5155 5152 5149 5144 5138 5134 5130 5125 5121 5120 5119 5119 5118 5116 5113 5111 5110 5108 5107 5105 5102 5101 5100 5098 5097 5095 5094 5090 5088 5088 5088 5087 5089 5094 5096
5374 5364 5353 5342 5335 5328 5319 5311 5303 5296 5289 5282 5274 5268 5263 5257 5253 5249 5244 5240 5236 5233 5229 5225 5221 5218 5215 5212 5209 5207 5204 5202 5198 5195 5192 5189 5185 5182 5179 5177 5174 5172 5170 5167 5164 5162 5160 5157 5152 5149 5146 5142 5138 5135 5129 5124 5121 5117 5113 5110 5110 5109 5108 5106 5103 5102 5102 5100 5098 5096 5094 5093 5091 5089 5088 5087 5085 5082 5079 5078 5078 5079 5082 5085 5084
5363 5353 5341 5330 5321 5313 5305 5297 5288 5281 5275 5269 5263 5257 5251 5245 5241 5237 5233 5230 5227 5223 5219 5215 5212 5208 5205 5202 5200 5197 5195 5192 5189 5186 5183 5180 5176 5173 5170 5168 5165 5162 5160 5158 5155 5152 5151 5148 5144 5140 5137 5133 5128 5125 5120 5116 5112 5109 5106 5102 5100 5099 5097 5095 5094 5094 5093 5091 5089 5088 5087 5086 5083 5081 5079 5078 5077 5075 5071 5070 5071 5073 5074 5074 5071
5353 5342 5331 5319 5308 5299 5290 5282 5274 5267 5261 5255 5250 5246 5240 5234 5230 5226 5223 5220 5217 5213 5209 5206 5202 5199 5196 5193 5191 5188 5185 5183 5180 5176 5174 5171 5167 5164 5161 5158 5156 5153 5151 5148 5146 5143 5141 5139 5136 5132 5128 5124 5120 5115 5111 5107 5104 5102 5098 5094 5092 5090 5088 5085 5085 5085 5084 5082 5081 5081 5080 5079 5076 5073 5072 5070 5069 5067 5064 5064 5065 5065 5064 5063 5062
5341 5331 5319 5307 5296 5285 5276 5268 5260 5253 5247 5242 5237 5233 5229 5224 5220 5216 5213 5210 5207 5203 5200 5196 5193 5190 5187 5185 5182 5179 5176 5174 5171 5168 5165 5162 5158 5155 5152 5150 5147 5145 5142 5140 5137 5134 5132 5130 5127 5123 5120 5116 5112 5106 5101 5098 5096 5094 5091 5087 5084 5082 5079 5076 5076 5076 5075 5074 5074 5074 5073 5071 5069 5067 5065 5063 5061 5059 5058 5058 5058 5057 5056 5055 5055
5329 5318 5306 5295 5284 5274 5265 5256 5247 5240 5235 5230 5225 5221 5218 5214 5210 5207 5204 5200 5197 5194 5191 5187 5184 5181 5179 5176 5174 5171 5168 5165 5162 5159 5157 5153 5150 5147 5144 5141 5138 5136 5134 5131 5128 5126 5123 5121 5118 5115 5112 5108 5104 5099 5093 5089 5087 5086 5084 5081 5077 5075 5071 5069 5067 5067 5066 5066 5066 5066 5065 5064 5062 5060 5058 5056 5055 5053 5052 5051 5051 5050 5049 5049 5048
5316 5304 5293 5283 5273 5264 5255 5247 5238 5230 5224 5219 5214 5211 5208 5204 5200 5197 5194 5191 5188 5185 5182 5179 5176 5173 5171 5168 5166 5162 5159 5156 5153 5150 5148 5145 5142 5139 5136 5133 5130 5127 5125 5123 5120 5117 5114 5112 5109 5107 5104 5100 5096 5092 5086 5081 5078 5077 5077 5074 5071 5068 5064 5061 5059 5059 5059 5058 5058 5057 5057 5056 5056 5054 5052 5050 5048 5047 5046 5045 5044 5043 5042 5042 5042
5304 5292 5281 5271 5262 5253 5245 5237 5229 5221 5215 5209 5204 5200 5198 5195 5191 5188 5185 5183 5179 5176 5174 5171 5168 5166 5163 5160 5158 5155 5152 5149 5145 5142 5140 5137 5134 5131 5128 5125 5121 5119 5117 5114 5112 5109 5106 5103 5101 5099 5096 5093 5089 5084 5079 5074 5070 5069 5068 5067 5065 5062 5058 5054 5052 5051 5051 5051 5051 5049 5048 5048 5048 5047 5045 5044 5042 5041 5039 5039 5038 5037 5036 5036 5036
5294 5282 5271 5260 5251 5242 5233 5226 5218 5211 5205 5200 5195 5191 5188 5185 5183 5180 5178 5175 5172 5169 5166 5163 5160 5158 5155 5153 5150 5148 5144 5141 5138 5135 5132 5129 5126 5123 5120 5117 5113 5111 5109 5106 5103 5100 5097 5094 5092 5090 5088 5085 5081 5077 5072 5068 5064 5062 5061 5060 5058 5055 5052 5048 5046 5045 5044 5044 5043 5042 5041 5041 5041 5040 5039 5037 5036 5035 5034 5033 5032 5031 5031 5031 5031
5284 5272 5261 5250 5240 5231 5222 5215 5208 5201 5195 5190 5186 5183 5179 5177 5175 5173 5170 5167 5164 5162 5159 5157 5154 5151 5149 5146 5143 5141 5137 5134 5131 5128 5125 5122 5118 5115 5112 5109 5106 5103 5101 5099 5095 5092 5089 5086 5084 5083 5080 5078 5075 5070 5065 5062 5058 5055 5054 5053 5051 5049 5046 5043 5041 5040 5039 5038 5036 5035 5035 5034 5034 5033 5033 5031 5030 5029 5028 5027 5027 5026 5026 5026 5026
5275 5263 5251 5240 5230 5220 5212 5204 5197 5191 5186 5181 5178 5175 5172 5171 5168 5166 5163 5160 5158 5156 5153 5150 5147 5145 5143 5140 5137 5134 5131 5128 5125 5122 5118 5115 5112 5108 5105 5102 5098 5095 5093 5091 5087 5084 5081 5078 5076 5074 5071 5069 5067 5063 5059 5055 5052 5049 5047 5046 5045 5043 5040 5038 5036 5036 5035 5033 5031 5030 5029 5028 5027 5027 5026 5025 5025 5024 5023 5022 5022 5022 5021 5022 5022
5268 5255 5243 5232 5221 5211 5202 5194 5188 5183 5178 5174 5171 5168 5167 5165 5162 5159 5157 5154 5152 5150 5147 5144 5141 5139 5136 5134 5131 5127 5124 5121 5118 5115 5112 5109 5105 5101 5098 5095 5092 5089 5086 5082 5079 5076 5073 5071 5069 5067 5064 5062 5060 5057 5054 5050 5046 5043 5041 5040 5038 5036 5033 5031 5031 5031 5029 5027 5026 5025 5024 5023 5022 5021 5020 5020 5020 5019 5018 5018 5018 5018 5018 5018 5018
5260 5248 5236 5225 5214 5203 5194 5187 5181 5176 5172 5168 5166 5164 5162 5159 5156 5153 5151 5148 5146 5144 5142 5139 5136 5133 5130 5127 5125 5121 5118 5115 5112 5109 5107 5104 5101 5096 5092 5088 5085 5083 5080 5076 5072 5068 5066 5063 5061 5059 5057 5055 5053 5051 5048 5045 5041 5038 5036 5034 5032 5029 5026 5024 5025 5025 5023 5021 5020 5020 5019 5018 5017 5016 5015 5015 5015 5014 5014 5013 5013 5014 5014 5015 5015